Погода в Мурманске

Погода в Мурманске : погода сейчас, прогноз погоды и архив. Всё, что Вы хотите узнать о погоде в Мурманске!

Поиск расширенной информации на нашем сайте:

Другие новости

Новости СМИ2

Главная страница сайта

Новости сайта

03.07.2017

Напоминаем, что на нашем специализированном сайте Метеоцентр.Азия вы можете получить высокодетализированные автоматические прогнозы погоды по пунктам России, СНГ и мира в авиационном формате (включающие направление и скорость ветра, видимость, явления погоды, количество и форму облачности, нижнюю и верхнюю границу облачности).


Погода в Мурманске - сегодня

Время (UTC), дата Ветер
(°,м/с) 
Видим.   Явления Облачность Т
(°С)
Тd
(°С)
f(%) Тe
(°С)
Pmin
(гПа)
dP
(гПа)
Po
(мм)
O2
(г/м3)
Тmin Tmax R s Состояние
почвы
18 17.11.17 230 (ЮЗ) 1-2  2000 м  дымка [диам. изморози 3 мм]  10/10 200 м 
[St]
-8.2 -9.3 92 -8  999.2  -1.1  745  310    -5.6       
21 17.11.17 190 (Ю) 2-3  2000 м  дымка [диам. изморози 4 мм]  10/10 200 м 
[St]
-8.5 -9.6 92 -10  998.5  -0.8  744  310           
00 18.11.17 200 (Ю) 2-2  2000 м  дымка [диам. изморози 5 мм]  10/10 200 м 
[St]
-8.2 -9.3 92 -10  997.8  -0.7  743  310           
03 18.11.17 190 (Ю) 2-3  10 км  [диам. изморози 6 мм]  10/10 300 м 
[St]
-7.9 -9 92 -9  997.6  0.1  743  309  -9.1         
06 18.11.17 190 (Ю) 2-3  0500 м  переохл. туман [диам. изморози 8 мм]  10/10 300 м 
[St]
-7.4 -8.4 93 -9  997.4  -0.2  743  309  -9.1      13  равномерный
сухой снег
100% 
09 18.11.17 220 (ЮЗ) 1-1  0500 м  переохл. туман [диам. изморози 9 мм]  ?/?  
-6.6 -7.5 93 -6  998.4  744  308           
12 18.11.17 200 (Ю) 1-2  0500 м  переохл. туман [диам. изморози 10 мм]  ?/?  
-6.4 -7.3 93 -6  998.7  0.4  744  308           
15 18.11.17 180 (Ю) 1-1  0200 м  переохл. туман [диам. изморози 17 мм]  ?/?  
-5.9 -6.8 93 -6  999.9  1.1  745  308           
18 18.11.17 180 (Ю) 2-3  4000 м  дымка{туман}  10/10 200 м 
[St]
-6.2 -7.1 93 -8  1001  1.2  746  308    -5.8       
21 18.11.17 180 (Ю) 2-3  4000 м  дымка [диам. изморози 17 мм]  10/10 100 м 
[St]
-6.1 -6.9 94 -8  1003.1  747  309           
00 19.11.17 160 (Ю) 2-3  4000 м  дымка [диам. изморози 17 мм]  10/10 100 м 
[St]
-6.1 -6.9 94 -8  1005.2  2.1  749  309           
03 19.11.17 200 (Ю) 1-2  10 км  [диам. изморози 17 мм]  10/10 100 м 
[St]
-6.2 -7.1 93 -6  1006.9  1.7  750  310  -6.4         
06 19.11.17 230 (ЮЗ) 2-2  10 км  [диам. изморози 20 мм]  10/10 100 м 
[St]
-7.5 -8.5 93 -9  1008.5  1.5  751  312  -7.5      13  равномерный
сухой снег
100% 
09 19.11.17 200 (Ю) 1-3  0500 м  переохл. туман [диам. изморози 21 мм]  ?/?  
-7.9 -8.9 93 -8  1011  2.5  753  313           
12 19.11.17 230 (ЮЗ) 1-1  10 км  {туман} [диам. изморози 22 мм]  10/10 100 м 
[St]
-9.1 -10.3 91 -9  1012.3  1.3  754  315           
15 19.11.17 170 (Ю) 1-2  2000 м  [диам. изморози 23 мм]  10/10 100 м 
[St]
-10.1 -11.4 90 -10  1013.9  1.6  755  317           
18 19.11.17 180 (Ю) 2-2  2000 м  дымка [диам. изморози 25 мм]  9/9 100 м 
[St]
-10.7 -12 90 -13  1014.9  756  318    -7.4  0.1     
21 19.11.17 190 (Ю) 2-3  4000 м  слаб. ливневой снег [диам. изморози 26 мм]  8/8 100 м кучево-дожд. 
[Cb cap]
-12.5 -14 89 -15  1016.3  1.3  757  321           
00 20.11.17 200 (Ю) 2-2  4000 м  слаб. ливневой снег [диам. изморози 28 мм]  5/5 300 м кучево-дожд. 
[Cb cap]
-14.9 -16.6 87 -17  1017.3  0.9  758  324           
03 20.11.17 200 (Ю) 1-2  4000 м  слаб. ливневой снег [диам. изморози 30 мм]  8/8 300 м кучево-дожд. 
[Cb cap]
-15.4 -17.1 87 -15  1017.9  0.6  758  325  -15.7    0.1     
06 20.11.17 180 (Ю) 1-2  1000 м  слаб. ливневой снег [диам. изморози 33 мм]  10/10 300 м кучево-дожд. 
[Cb cap]
-13.1 -14.6 88 -13  1018.4  0.6  759  322  -15.7    0.0  13  равномерный
сухой снег
100% 
09 20.11.17 190 (Ю) 1-1  4000 м  слаб. ливневой снег [диам. изморози 37 мм]  10/10 300 м кучево-дожд. 
[Cb cap]
-13.4 -15 88 -13  1019.7  1.2  760  323           
12 20.11.17 тихо ()   1000 м  дымка{ливн. осадки, туман} [диам. изморози 40 мм]  10/10 300 м кучево-дожд. 
[Cb cap]
-12 -13.4 89 -12  1020.1  0.4  760  322           
15 20.11.17 190 (Ю) 1-1  1000 м  дымка [диам. изморози 42 мм]  10/10 300 м кучево-дожд. 
[Cb cap]
-12.5 -14 89 -12  1020.6  0.5  760  322      0.0     
18 20.11.17 190 (Ю) 2-2  2000 м  дымка [диам. изморози 44 мм]  6/6 600 м 
[Sc]
-12.8 -14.4 88 -15  1021.2  0.6  761  323    -11.9  0.3     
Время (UTC), дата Ветер
(°,м/с) 
Видим.   Явления Облачность Т
(°С)
Тd
(°С)
f(%) Тe
(°С)
Pmin
(гПа)
dP
(гПа)
Po
(мм)
O2
(г/м3)
Тmin Tmax R s Состояние
почвы

Для получения пояснительной информации подведите курсор к названию столбца.

ПОГОДА в Мурманске - архив

Всё, что Вы хотите узнать о погоде в Мурманске - удобно и подробно!

Выберите нужную дату (начиная с 1 января 2015* года) и нажмите кнопку "Найти".
Будут отображены архивные сводки погоды по пункту Мурманск, начиная с указанной даты.


Отображать данные в формате CSV (для использования в таблицах Excel)


Внимание! Наш архив погоды предназначен исключительно для личного некоммерческого использования в познавательных целях. Если Вам необходимы официальные справки о состоянии погоды (для производственных, юридических, коммерческих и т.п. целей), обращайтесь в органы Росгидромета.

*Примечание: данная дата относится к архиву по метеостанциям СССР (Россия, СНГ, Балтия).
Архив по метеостанциям Зарубежной Европы и Азии (кроме Китая) хранится 10 дней, по другим регионам земного шара (Китай, Африка, Америка, Австралия, Океания) - 1 день.

Мурманск - район местоположения метеостанции


Название, широта, долгота, высота метеостанции:
Мурманск (город) 69°ш. 33.1°д. 51 м над ур. моря [Российская Федерация]

Дополнительная информация

В oтличие oт бoльшинства пoгoдных сайтoв мы публикуем пoдрoбную метеoинфoрмацию в детальнoм прoфессиoнальнoм фoрмате.

Характеристики температуры и влажнoсти вoздуха измеряются на высoте 2 м в тени вдали oт зданий и деревьев.
Скoрoсть ветра измеряется на высoте 10 м (на урoвне рoста челoвека скoрoсть ветра ниже в 1.5-2 раза). Если метеoстанция нахoдится в гoрoде или в лесу, тo скoрoсть ветра занижена на 2-4 м/с пo сравнению с oткрытым местoм. Скoрoсть ветра над акватoриями крупных рек и oзёр, а также на вершинах хoлмoв на 2-5 м/с выше, чем в oбычных услoвиях.
Атмoсфернoе давление в разных тoчках местнoсти мoжет значительнo oтличаться oт давления на метеoстанции, в зависимoсти oт услoвий рельефа (при пoдъёме на 10 м давление пoнижается примернo на 1 мм рт.ст.).